Change the Weather History Date:

Saturday, August 17, 2013

  Actual Average Record
Temperature  
Mean Temperature 51 °F -  
Max Temperature 59 °F 58 °F 60 °F (2005)
Min Temperature 43 °F 42 °F 35 °F (2002)
Degree Days  
Heating Degree Days 14    
Growing Degree Days 1 (Base 50)    
Moisture  
Dew Point 40 °F    
Average Humidity 62    
Maximum Humidity 87    
Minimum Humidity 31    
Precipitation  
Precipitation 0.02 in 0.06 in - ()
Sea Level Pressure  
Sea Level Pressure 29.71 in    
Wind  
Wind Speed 17 mph ()    
Max Wind Speed 32 mph    
Max Gust Speed 34 mph    
Visibility 7.5 miles    
Events Rain    
Averages and records for this station are not official NWS values.
T = Trace of Precipitation, MM = Missing Value Source: Averaged Metar Reports

Daily Weather History Graph

Daily Weather History Graph

Search for Another Location

Airport or City:

Trip Planner

Search our weather history database for the weather conditions in past years. The results will help you decide how hot, cold, wet, or windy it might be!

Date:

Astronomy

Aug. 17, 2013 Rise Set
Actual Time 7:03 AM AEST 5:46 PM AEST
Civil Twilight 6:36 AM AEST 6:13 PM AEST
Nautical Twilight 6:05 AM AEST 6:44 PM AEST
Astronomical Twilight 5:34 AM AEST 7:15 PM AEST
Moon 1:35 PM AEST (8/17) 3:17 AM AEST (8/17)
Length of Visible Light 11h 37m
Length of Day
10h 43m
Waxing Gibbous, 79% of the Moon is Illuminated
Aug 17
Waxing Gibbous
Aug 21
Full
Aug 28
Last Quarter
Sep 5
New
Sep 13
First Quarter

Hourly Weather History & Observations

Time (AEST) Temp. Windchill Dew Point Humidity Pressure Visibility Wind Dir Wind Speed Gust Speed Precip Events Conditions
12:00 AM 51 °F - 44 °F 68% 29.59 in 19 mi North 32.2 mph - - Rain Light Rain Showers
12:00 AM 51.8 °F - 44.6 °F 76% 29.56 in 6.2 mi North 32.2 mph - N/A Rain Light Rain Showers
12:22 AM 51.8 °F - 44.6 °F 76% 29.59 in 6.2 mi North 23.0 mph 34.5 mph N/A Rain Light Rain Showers
12:30 AM 51.8 °F - 44.6 °F 76% 29.56 in 6.2 mi North 21.9 mph - N/A Rain Light Rain Showers
1:00 AM 51 °F - 44 °F 68% 29.61 in - North 19.6 mph - -  
1:00 AM 50.0 °F - 42.8 °F 76% 29.59 in 6.2 mi North 19.6 mph - N/A   Mostly Cloudy
1:30 AM 50.0 °F - 42.8 °F 76% 29.59 in 6.2 mi NNW 17.3 mph - N/A   Partly Cloudy
2:00 AM 50 °F - 41 °F 63% 29.62 in - NNW 15.0 mph - -  
2:00 AM 50.0 °F - 41.0 °F 71% 29.62 in 6.2 mi NNW 15.0 mph - N/A   Partly Cloudy
2:30 AM 50.0 °F - 41.0 °F 71% 29.62 in 6.2 mi NNW 12.7 mph - N/A   Partly Cloudy
3:00 AM 49 °F - 41 °F 67% 29.65 in 19 mi NNW 12.7 mph - -   Partly Cloudy
3:00 AM 48.2 °F - 41.0 °F 76% 29.62 in 6.2 mi NNW 12.7 mph - N/A   Partly Cloudy
3:30 AM 46.4 °F 41.9 °F 42.8 °F 87% 29.62 in 6.2 mi North 9.2 mph - N/A   Partly Cloudy
4:00 AM 48.2 °F - 41.0 °F 76% 29.65 in 6.2 mi North 10.4 mph - N/A   Partly Cloudy
4:30 AM 48.2 °F - 41.0 °F 76% 29.65 in 6.2 mi North 11.5 mph - N/A   Partly Cloudy
5:00 AM 47 °F - 41 °F 72% 29.67 in - North 12.7 mph - -  
5:00 AM 48.2 °F - 41.0 °F 76% 29.65 in 6.2 mi North 12.7 mph - N/A   Partly Cloudy
5:30 AM 48.2 °F - 41.0 °F 76% 29.68 in 6.2 mi North 11.5 mph - N/A   Partly Cloudy
6:00 AM 44.6 °F 39.2 °F 41.0 °F 87% 29.68 in 6.2 mi North 10.4 mph - N/A   Partly Cloudy
7:00 AM 47 °F - 39 °F 65% 29.72 in - North 15.0 mph - -  
7:00 AM 46.4 °F 40.1 °F 39.2 °F 76% 29.71 in 6.2 mi North 15.0 mph - N/A   Partly Cloudy
7:30 AM 46.4 °F 40.1 °F 39.2 °F 76% 29.71 in 6.2 mi North 15.0 mph - N/A   Scattered Clouds
8:00 AM 48 °F - 40 °F 64% 29.74 in - North 13.8 mph - -  
8:00 AM 48.2 °F - 39.2 °F 71% 29.71 in 6.2 mi North 13.8 mph - N/A   Mostly Cloudy
8:30 AM 48.2 °F - 41.0 °F 76% 29.74 in 6.2 mi North 12.7 mph - N/A   Mostly Cloudy
9:00 AM 51 °F - 40 °F 55% 29.76 in 19 mi North 11.5 mph - -   Partly Cloudy
9:00 AM 50.0 °F - 39.2 °F 66% 29.74 in 6.2 mi North 11.5 mph - N/A   Partly Cloudy
9:30 AM 51.8 °F - 39.2 °F 62% 29.74 in 6.2 mi North 17.3 mph - N/A   Scattered Clouds
10:00 AM 52 °F - 39 °F 51% 29.74 in - North 16.1 mph - -  
10:00 AM 51.8 °F - 39.2 °F 62% 29.74 in 6.2 mi North 16.1 mph - N/A   Mostly Cloudy
10:30 AM 51.8 °F - 39.2 °F 62% 29.74 in 6.2 mi NNW 13.8 mph - N/A   Mostly Cloudy
11:00 AM 54 °F - 39 °F 45% 29.76 in - NNW 17.3 mph - -  
11:00 AM 53.6 °F - 39.2 °F 58% 29.74 in 6.2 mi NNW 17.3 mph - N/A   Partly Cloudy
11:18 AM 55.4 °F - 39.2 °F 54% 29.74 in 6.2 mi NNW 18.4 mph 29.9 mph N/A   Partly Cloudy
11:37 AM 55.4 °F - 39.2 °F 54% 29.71 in 6.2 mi NNW 23.0 mph 34.5 mph N/A   Partly Cloudy
12:00 PM 57 °F - 38 °F 38% 29.73 in 19 mi NNW 21.9 mph - -   Partly Cloudy
12:00 PM 57.2 °F - 39.2 °F 51% 29.71 in 6.2 mi NNW 21.9 mph - N/A   Partly Cloudy
12:21 PM 55.4 °F - 35.6 °F 47% 29.71 in 6.2 mi NNW 20.7 mph 32.2 mph N/A   Partly Cloudy
12:30 PM 57.2 °F - 37.4 °F 48% 29.71 in 6.2 mi NNW 20.7 mph 33.4 mph N/A   Partly Cloudy
1:00 PM 57 °F - 35 °F 31% 29.72 in - NNW 19.6 mph - -  
1:00 PM 57.2 °F - 33.8 °F 41% 29.71 in 6.2 mi NNW 19.6 mph 32.2 mph N/A   Partly Cloudy
1:30 PM 57.2 °F - 33.8 °F 41% 29.71 in 6.2 mi NW 20.7 mph - N/A   Partly Cloudy
1:38 PM 59.0 °F - 37.4 °F 45% 29.71 in 6.2 mi NW 19.6 mph 31.1 mph N/A   Scattered Clouds
2:00 PM 59 °F - 37 °F 31% 29.72 in - NW 17.3 mph - -  
2:00 PM 59.0 °F - 37.4 °F 45% 29.71 in 6.2 mi NW 17.3 mph - N/A   Mostly Cloudy
2:30 PM 55.4 °F - 33.8 °F 44% 29.71 in 6.2 mi NW 17.3 mph - N/A   Mostly Cloudy
3:00 PM 55 °F - 34 °F 33% 29.73 in 19 mi NW 19.6 mph - -   Scattered Clouds
3:00 PM 55.4 °F - 33.8 °F 44% 29.71 in 6.2 mi NW 19.6 mph - N/A   Mostly Cloudy
3:30 PM 55.4 °F - 33.8 °F 44% 29.71 in 6.2 mi NNW 16.1 mph - N/A   Mostly Cloudy
4:00 PM 55 °F - 34 °F 32% 29.73 in - NNW 16.1 mph - -  
4:00 PM 55.4 °F - 33.8 °F 44% 29.71 in 6.2 mi NNW 16.1 mph - N/A   Mostly Cloudy
4:30 PM 53.6 °F - 35.6 °F 51% 29.71 in 6.2 mi North 18.4 mph - N/A   Mostly Cloudy
5:00 PM 55 °F - 37 °F 39% 29.72 in - North 21.9 mph - -  
5:00 PM 55.4 °F - 37.4 °F 51% 29.71 in 6.2 mi North 21.9 mph - N/A   Mostly Cloudy
5:30 PM 53.6 °F - 39.2 °F 58% 29.71 in 6.2 mi North 18.4 mph - N/A   Mostly Cloudy
5:38 PM 53.6 °F - 37.4 °F 54% 29.71 in 6.2 mi North 19.6 mph 33.4 mph N/A Rain Light Rain Showers
6:00 PM 51 °F - 41 °F 60% 29.76 in 6 mi NNW 16.1 mph - - Rain Light Rain Showers
6:00 PM 50.0 °F - 41.0 °F 71% 29.74 in 5.6 mi NNW 16.1 mph - N/A Rain Light Rain Showers
6:30 PM 50.0 °F - 42.8 °F 76% 29.74 in 6.2 mi North 17.3 mph - N/A   Mostly Cloudy
7:00 PM 49 °F - 42 °F 70% 29.76 in - North 21.9 mph - -  
7:00 PM 48.2 °F - 42.8 °F 82% 29.74 in 6.2 mi North 21.9 mph - N/A   Mostly Cloudy
7:30 PM 48.2 °F - 42.8 °F 82% 29.74 in 6.2 mi North 18.4 mph - N/A Rain Light Rain Showers
8:00 PM 49 °F - 42 °F 70% 29.78 in - North 17.3 mph - -  
8:00 PM 48.2 °F - 42.8 °F 82% 29.77 in 6.2 mi North 17.3 mph - N/A   Mostly Cloudy
8:30 PM 51.8 °F - 42.8 °F 71% 29.77 in 6.2 mi NW 18.4 mph - N/A   Mostly Cloudy
9:00 PM 51 °F - 42 °F 61% 29.80 in 19 mi North 17.3 mph - -   Partly Cloudy
9:00 PM 50.0 °F - 41.0 °F 71% 29.77 in 6.2 mi North 17.3 mph - N/A   Mostly Cloudy
9:30 PM 50.0 °F - 41.0 °F 71% 29.80 in 6.2 mi North 13.8 mph - N/A   Partly Cloudy
10:00 PM 50 °F - 40 °F 58% 29.80 in - North 11.5 mph - -  
10:00 PM 50.0 °F - 39.2 °F 66% 29.77 in 6.2 mi North 11.5 mph - N/A   Partly Cloudy
10:30 PM 50.0 °F - 41.0 °F 71% 29.77 in 6.2 mi North 11.5 mph - N/A   Partly Cloudy
11:00 PM 49 °F - 41 °F 66% 29.79 in - North 11.5 mph - -  
11:00 PM 48.2 °F - 41.0 °F 76% 29.77 in 6.2 mi North 11.5 mph - N/A   Partly Cloudy
11:30 PM 50.0 °F - 42.8 °F 76% 29.77 in 6.2 mi NNW 17.3 mph - N/A   Partly Cloudy